Siler City Muni, Siler City,, NC

4:31 PM EDT on May 25, 2017 (GMT -0400)
Siler City Muni, Siler City,

Weather History for K5W8 - December, 2013

Change the Weather History Date:

Thursday, December 12, 2013

  Actual Average (KBUY) Record (KBUY)
Temperature  
Mean Temperature 33 °F -  
Max Temperature 43 °F 52 °F 79 °F (2007)
Min Temperature 22 °F 31 °F 4 °F (1957)
Degree Days  
Heating Degree Days 32    
Moisture  
Dew Point 20 °F    
Average Humidity 68    
Maximum Humidity 99    
Minimum Humidity 27    
Precipitation  
Precipitation 0.00 in - - ()
Sea Level Pressure  
Sea Level Pressure 30.34 in    
Wind  
Wind Speed 2 mph (NNW)    
Max Wind Speed 10 mph    
Max Gust Speed 17 mph    
Visibility 10 miles    
Events      
Averages and records for this station are not official NWS values.
T = Trace of Precipitation, MM = Missing Value Source: NWS Daily Summary

Daily Weather History Graph

Daily Weather History Graph

Search for Another Location

Airport or City:

Trip Planner

Search our weather history database for the weather conditions in past years. The results will help you decide how hot, cold, wet, or windy it might be!

Date:

Astronomy

Dec. 12, 2013 Rise Set
Actual Time 7:18 AM EST 5:05 PM EST
Civil Twilight 6:50 AM EST 5:33 PM EST
Nautical Twilight 6:18 AM EST 6:05 PM EST
Astronomical Twilight 5:47 AM EST 6:36 PM EST
Moon 2:05 PM EST (12/12) 2:46 AM EST (12/12)
Length of Visible Light 10h 43m
Length of Day
9h 46m
Waxing Gibbous, 80% of the Moon is Illuminated
Dec 12
Waxing Gibbous
Dec 17
Full
Dec 25
Last Quarter
Jan 1
New
Jan 7
First Quarter

Hourly Weather History & Observations

Time (EST) Temp. Windchill Dew Point Humidity Pressure Visibility Wind Dir Wind Speed Gust Speed Precip Events Conditions
12:15 AM 27.1 °F - 26.4 °F 97% 30.29 in 10.0 mi Calm Calm - N/A   Clear
12:35 AM 27.5 °F - 26.8 °F 97% 30.28 in 10.0 mi Calm Calm - N/A   Clear
12:55 AM 27.1 °F - 26.1 °F 96% 30.28 in 10.0 mi Calm Calm - N/A   Clear
1:15 AM 27.0 °F - 26.2 °F 97% 30.28 in 10.0 mi Calm Calm - N/A   Clear
1:35 AM 26.6 °F - 25.9 °F 97% 30.28 in 10.0 mi Calm Calm - N/A   Clear
1:55 AM 26.1 °F - 25.5 °F 98% 30.28 in 10.0 mi Calm Calm - N/A   Clear
2:15 AM 26.4 °F - 25.5 °F 96% 30.28 in 10.0 mi Calm Calm - N/A   Clear
2:35 AM 25.5 °F - 24.6 °F 96% 30.28 in 10.0 mi Calm Calm - N/A   Clear
2:55 AM 25.3 °F - 24.6 °F 97% 30.29 in 10.0 mi Calm Calm - N/A   Clear
3:15 AM 25.2 °F - 24.1 °F 96% 30.29 in 10.0 mi Calm Calm - N/A   Clear
3:35 AM 24.3 °F - 23.5 °F 97% 30.29 in 10.0 mi Calm Calm - N/A   Clear
3:55 AM 24.8 °F - 24.4 °F 99% 30.28 in 10.0 mi Calm Calm - N/A   Clear
4:15 AM 24.8 °F - 23.9 °F 96% 30.28 in 10.0 mi Calm Calm - N/A   Clear
4:35 AM 24.1 °F - 23.2 °F 96% 30.28 in 10.0 mi Calm Calm - N/A   Clear
4:55 AM 24.1 °F - 23.0 °F 96% 30.28 in 10.0 mi Calm Calm - N/A   Clear
5:15 AM 24.6 °F - 23.2 °F 94% 30.29 in 10.0 mi Calm Calm - N/A   Clear
5:35 AM 23.9 °F - 23.0 °F 96% 30.29 in 10.0 mi Calm Calm - N/A   Clear
5:55 AM 24.3 °F - 23.0 °F 95% 30.29 in 10.0 mi Calm Calm - N/A   Clear
6:15 AM 24.3 °F 19.9 °F 21.4 °F 89% 30.30 in 10.0 mi North 3.5 mph - N/A   Clear
6:35 AM 29.7 °F 23.7 °F 22.6 °F 75% 30.31 in 10.0 mi North 5.8 mph - N/A   Clear
6:55 AM 30.9 °F 24.3 °F 21.7 °F 69% 30.32 in 10.0 mi North 6.9 mph - N/A   Clear
7:15 AM 31.8 °F 25.4 °F 21.2 °F 65% 30.34 in 10.0 mi North 6.9 mph - N/A   Clear
7:35 AM 32.0 °F 26.4 °F 20.8 °F 63% 30.35 in 10.0 mi North 5.8 mph - N/A   Clear
7:55 AM 32.5 °F 26.2 °F 20.3 °F 61% 30.37 in 10.0 mi North 6.9 mph - N/A   Clear
8:15 AM 33.8 °F 28.6 °F 20.1 °F 57% 30.38 in 10.0 mi NNW 5.8 mph - N/A   Clear
8:35 AM 34.5 °F 28.6 °F 20.5 °F 57% 30.38 in 10.0 mi North 6.9 mph - N/A   Clear
8:55 AM 35.6 °F 30.7 °F 21.0 °F 55% 30.39 in 10.0 mi NNW 5.8 mph - N/A   Clear
9:15 AM 36.1 °F 28.7 °F 20.5 °F 53% 30.40 in 10.0 mi North 10.4 mph 17.3 mph N/A   Clear
9:35 AM 36.9 °F 30.7 °F 20.3 °F 51% 30.41 in 10.0 mi North 8.1 mph - N/A   Clear
9:55 AM 37.0 °F 31.0 °F 20.3 °F 51% 30.41 in 10.0 mi NNW 8.1 mph 17.3 mph N/A   Clear
10:15 AM 37.6 °F 31.6 °F 20.3 °F 50% 30.42 in 10.0 mi North 8.1 mph 17.3 mph N/A   Clear
10:35 AM 38.7 °F 34.3 °F 20.3 °F 48% 30.41 in 10.0 mi NNW 5.8 mph - N/A   Clear
10:55 AM 39.2 °F 33.6 °F 19.9 °F 46% 30.41 in 10.0 mi North 8.1 mph - N/A   Clear
11:15 AM 39.9 °F 35.1 °F 19.9 °F 45% 30.39 in 10.0 mi NNE 6.9 mph - N/A   Clear
11:35 AM 40.1 °F 36.1 °F 19.0 °F 43% 30.39 in 10.0 mi North 5.8 mph - N/A   Clear
11:55 AM 41.0 °F 37.1 °F 19.4 °F 42% 30.38 in 10.0 mi NNW 5.8 mph - N/A   Clear
12:15 PM 40.8 °F 38.8 °F 19.0 °F 42% 30.37 in 10.0 mi West 3.5 mph - N/A   Clear
12:35 PM 41.4 °F 37.6 °F 18.1 °F 39% 30.36 in 10.0 mi WNW 5.8 mph - N/A   Clear
12:55 PM 41.4 °F 38.4 °F 17.1 °F 38% 30.36 in 10.0 mi WNW 4.6 mph - N/A   Clear
1:15 PM 42.3 °F - 17.4 °F 37% 30.35 in 10.0 mi Calm Calm - N/A   Clear
1:35 PM 42.3 °F 39.4 °F 16.7 °F 36% 30.35 in 10.0 mi WSW 4.6 mph - N/A   Clear
1:55 PM 43.3 °F 39.9 °F 17.1 °F 35% 30.34 in 10.0 mi North 5.8 mph - N/A   Clear
2:15 PM 43.3 °F 40.7 °F 17.2 °F 35% 30.34 in 10.0 mi North 4.6 mph - N/A   Clear
2:35 PM 43.5 °F 41.9 °F 14.7 °F 31% 30.33 in 10.0 mi NW 3.5 mph - N/A   Clear
2:55 PM 43.7 °F 41.1 °F 13.6 °F 30% 30.33 in 10.0 mi NNW 4.6 mph - N/A   Clear
3:15 PM 43.7 °F 40.3 °F 12.7 °F 29% 30.33 in 10.0 mi NNW 5.8 mph - N/A   Clear
3:55 PM 43.0 °F 39.5 °F 10.6 °F 27% 30.34 in 10.0 mi NW 5.8 mph - N/A   Clear
4:15 PM 42.8 °F 40.1 °F 11.3 °F 28% 30.34 in 10.0 mi NW 4.6 mph - N/A   Clear
4:35 PM 41.7 °F 39.8 °F 12.4 °F 30% 30.35 in 10.0 mi NW 3.5 mph - N/A   Clear
4:55 PM 40.5 °F - 12.6 °F 32% 30.36 in 10.0 mi Calm Calm - N/A   Clear
5:15 PM 35.8 °F - 17.4 °F 47% 30.36 in 10.0 mi Calm Calm - N/A   Clear
5:35 PM 35.2 °F - 16.5 °F 47% 30.36 in 10.0 mi Calm Calm - N/A   Clear
5:55 PM 32.7 °F - 21.2 °F 63% 30.37 in 10.0 mi Calm Calm - N/A   Clear
6:15 PM 30.0 °F - 19.9 °F 66% 30.36 in 10.0 mi Calm Calm - N/A   Clear
6:35 PM 29.7 °F - 20.7 °F 69% 30.36 in 10.0 mi Calm Calm - N/A   Clear
6:55 PM 27.9 °F - 20.3 °F 73% 30.36 in 10.0 mi Calm Calm - N/A   Clear
7:15 PM 27.9 °F - 20.8 °F 75% 30.37 in 10.0 mi Calm Calm - N/A   Clear
7:35 PM 26.4 °F - 21.0 °F 80% 30.37 in 10.0 mi Calm Calm - N/A   Clear
7:55 PM 26.6 °F - 20.3 °F 77% 30.37 in 10.0 mi Calm Calm - N/A   Clear
8:15 PM 26.4 °F - 20.8 °F 79% 30.37 in 10.0 mi Calm Calm - N/A   Clear
8:35 PM 24.4 °F - 20.5 °F 85% 30.37 in 10.0 mi Calm Calm - N/A   Clear
8:55 PM 25.9 °F - 21.0 °F 82% 30.37 in 10.0 mi Calm Calm - N/A   Clear
9:15 PM 26.1 °F - 20.3 °F 79% 30.37 in 10.0 mi Calm Calm - N/A   Clear
9:35 PM 25.5 °F - 20.1 °F 80% 30.37 in 10.0 mi Calm Calm - N/A   Clear
9:55 PM 23.9 °F - 19.8 °F 84% 30.37 in 10.0 mi Calm Calm - N/A   Clear
10:15 PM 23.4 °F - 19.8 °F 86% 30.36 in 10.0 mi Calm Calm - N/A   Clear
10:35 PM 23.9 °F - 20.3 °F 86% 30.36 in 10.0 mi Calm Calm - N/A   Clear
10:55 PM 23.7 °F - 20.8 °F 89% 30.35 in 10.0 mi Calm Calm - N/A   Clear
11:15 PM 23.5 °F - 20.8 °F 89% 30.35 in 10.0 mi Calm Calm - N/A   Clear
11:35 PM 23.0 °F - 19.6 °F 87% 30.35 in 10.0 mi Calm Calm - N/A   Clear
11:55 PM 22.5 °F - 20.8 °F 93% 30.35 in 10.0 mi Calm Calm - N/A   Clear